<?xml version="1.0" encoding="UTF-8" standalone="no" ?>
<gpx xmlns="http://www.topografix.com/GPX/1/1" xmlns:xsi="http://www.w3.org/2001/XMLSchema-instance" xsi:schemaLocation="http://www.topografix.com/GPX/1/1 http://www.topografix.com/GPX/1/1/gpx.xsd" version="1.1" creator="VisuGPX - https://www.visugpx.com">
  <metadata>
    <name>montreuil</name>
    <desc><![CDATA[montreuil sejour stella le 21 juin 13]]></desc>
  </metadata>
  <trk>
    <name><![CDATA[montreuil]]></name>
    <trkseg>
      <trkpt lat="50.46409" lon="1.76288">
        <ele>48</ele>
        <time>2013-06-21T05:29:18Z</time>
      </trkpt>
      <trkpt lat="50.46406" lon="1.762">
        <ele>48.6</ele>
        <time>2013-06-21T05:29:18Z</time>
      </trkpt>
      <trkpt lat="50.4643" lon="1.76144">
        <ele>48.2</ele>
        <time>2013-06-21T05:29:18Z</time>
      </trkpt>
      <trkpt lat="50.4644" lon="1.76117">
        <ele>48</ele>
        <time>2013-06-21T05:29:18Z</time>
      </trkpt>
      <trkpt lat="50.46463" lon="1.76065">
        <ele>48</ele>
        <time>2013-06-21T05:29:18Z</time>
      </trkpt>
      <trkpt lat="50.46505" lon="1.76057">
        <ele>48</ele>
        <time>2013-06-21T05:29:18Z</time>
      </trkpt>
      <trkpt lat="50.46546" lon="1.76054">
        <ele>48</ele>
        <time>2013-06-21T05:29:18Z</time>
      </trkpt>
      <trkpt lat="50.46586" lon="1.76041">
        <ele>48</ele>
        <time>2013-06-21T05:29:18Z</time>
      </trkpt>
      <trkpt lat="50.46627" lon="1.76025">
        <ele>46.3</ele>
        <time>2013-06-21T05:29:18Z</time>
      </trkpt>
      <trkpt lat="50.46668" lon="1.76041">
        <ele>46.3</ele>
        <time>2013-06-21T05:29:18Z</time>
      </trkpt>
      <trkpt lat="50.46695" lon="1.76021">
        <ele>44.1</ele>
        <time>2013-06-21T05:29:18Z</time>
      </trkpt>
      <trkpt lat="50.46652" lon="1.7603">
        <ele>45.2</ele>
        <time>2013-06-21T05:29:18Z</time>
      </trkpt>
      <trkpt lat="50.46614" lon="1.76">
        <ele>48.5</ele>
        <time>2013-06-21T05:29:18Z</time>
      </trkpt>
      <trkpt lat="50.46578" lon="1.75965">
        <ele>48.7</ele>
        <time>2013-06-21T05:29:18Z</time>
      </trkpt>
      <trkpt lat="50.4655" lon="1.75941">
        <ele>44.8</ele>
        <time>2013-06-21T05:29:18Z</time>
      </trkpt>
      <trkpt lat="50.46586" lon="1.75896">
        <ele>40.2</ele>
        <time>2013-06-21T05:29:18Z</time>
      </trkpt>
      <trkpt lat="50.46629" lon="1.75857">
        <ele>37.4</ele>
        <time>2013-06-21T05:29:18Z</time>
      </trkpt>
      <trkpt lat="50.46654" lon="1.75802">
        <ele>34.4</ele>
        <time>2013-06-21T05:29:18Z</time>
      </trkpt>
      <trkpt lat="50.46679" lon="1.75744">
        <ele>35.1</ele>
        <time>2013-06-21T05:29:18Z</time>
      </trkpt>
      <trkpt lat="50.46701" lon="1.75722">
        <ele>33</ele>
        <time>2013-06-21T05:29:18Z</time>
      </trkpt>
      <trkpt lat="50.46745" lon="1.75747">
        <ele>35.4</ele>
        <time>2013-06-21T05:29:18Z</time>
      </trkpt>
      <trkpt lat="50.46782" lon="1.7571">
        <ele>32.7</ele>
        <time>2013-06-21T05:29:18Z</time>
      </trkpt>
      <trkpt lat="50.46826" lon="1.75678">
        <ele>29.2</ele>
        <time>2013-06-21T05:29:18Z</time>
      </trkpt>
      <trkpt lat="50.46864" lon="1.75639">
        <ele>26</ele>
        <time>2013-06-21T05:29:18Z</time>
      </trkpt>
      <trkpt lat="50.46879" lon="1.75583">
        <ele>21.6</ele>
        <time>2013-06-21T05:29:18Z</time>
      </trkpt>
      <trkpt lat="50.46893" lon="1.75505">
        <ele>19.9</ele>
        <time>2013-06-21T05:29:18Z</time>
      </trkpt>
      <trkpt lat="50.4693" lon="1.75464">
        <ele>17.4</ele>
        <time>2013-06-21T05:29:18Z</time>
      </trkpt>
      <trkpt lat="50.46968" lon="1.75421">
        <ele>12.9</ele>
        <time>2013-06-21T05:29:18Z</time>
      </trkpt>
      <trkpt lat="50.47008" lon="1.75408">
        <ele>8.1</ele>
        <time>2013-06-21T05:29:18Z</time>
      </trkpt>
      <trkpt lat="50.47038" lon="1.75465">
        <ele>5.9</ele>
        <time>2013-06-21T05:29:18Z</time>
      </trkpt>
      <trkpt lat="50.47084" lon="1.75475">
        <ele>5.9</ele>
        <time>2013-06-21T05:29:18Z</time>
      </trkpt>
      <trkpt lat="50.47083" lon="1.75526">
        <ele>5.9</ele>
        <time>2013-06-21T05:29:18Z</time>
      </trkpt>
      <trkpt lat="50.4705" lon="1.75575">
        <ele>5.1</ele>
        <time>2013-06-21T05:29:18Z</time>
      </trkpt>
      <trkpt lat="50.47031" lon="1.75637">
        <ele>5</ele>
        <time>2013-06-21T05:29:18Z</time>
      </trkpt>
      <trkpt lat="50.47014" lon="1.75715">
        <ele>5</ele>
        <time>2013-06-21T05:29:18Z</time>
      </trkpt>
      <trkpt lat="50.47006" lon="1.75777">
        <ele>5.8</ele>
        <time>2013-06-21T05:29:18Z</time>
      </trkpt>
      <trkpt lat="50.46987" lon="1.75843">
        <ele>5</ele>
        <time>2013-06-21T05:29:18Z</time>
      </trkpt>
      <trkpt lat="50.46962" lon="1.75891">
        <ele>5</ele>
        <time>2013-06-21T05:29:18Z</time>
      </trkpt>
      <trkpt lat="50.46951" lon="1.75945">
        <ele>5.8</ele>
        <time>2013-06-21T05:29:18Z</time>
      </trkpt>
      <trkpt lat="50.46931" lon="1.76008">
        <ele>5.5</ele>
        <time>2013-06-21T05:29:18Z</time>
      </trkpt>
      <trkpt lat="50.46922" lon="1.76081">
        <ele>5.7</ele>
        <time>2013-06-21T05:29:18Z</time>
      </trkpt>
      <trkpt lat="50.4692" lon="1.7615">
        <ele>5.9</ele>
        <time>2013-06-21T05:29:18Z</time>
      </trkpt>
      <trkpt lat="50.46923" lon="1.76223">
        <ele>5</ele>
        <time>2013-06-21T05:29:18Z</time>
      </trkpt>
      <trkpt lat="50.46935" lon="1.76289">
        <ele>5.3</ele>
        <time>2013-06-21T05:29:18Z</time>
      </trkpt>
      <trkpt lat="50.4695" lon="1.76342">
        <ele>5.9</ele>
        <time>2013-06-21T05:29:18Z</time>
      </trkpt>
      <trkpt lat="50.46942" lon="1.76377">
        <ele>6</ele>
        <time>2013-06-21T05:29:18Z</time>
      </trkpt>
      <trkpt lat="50.46948" lon="1.76447">
        <ele>6.2</ele>
        <time>2013-06-21T05:29:18Z</time>
      </trkpt>
      <trkpt lat="50.4696" lon="1.76514">
        <ele>6.1</ele>
        <time>2013-06-21T05:29:18Z</time>
      </trkpt>
      <trkpt lat="50.4695" lon="1.76567">
        <ele>6.4</ele>
        <time>2013-06-21T05:29:18Z</time>
      </trkpt>
      <trkpt lat="50.46951" lon="1.7665">
        <ele>5.9</ele>
        <time>2013-06-21T05:29:18Z</time>
      </trkpt>
      <trkpt lat="50.46951" lon="1.76744">
        <ele>5.8</ele>
        <time>2013-06-21T05:29:18Z</time>
      </trkpt>
      <trkpt lat="50.46966" lon="1.76837">
        <ele>5.8</ele>
        <time>2013-06-21T05:29:18Z</time>
      </trkpt>
      <trkpt lat="50.46975" lon="1.76918">
        <ele>5.9</ele>
        <time>2013-06-21T05:29:18Z</time>
      </trkpt>
      <trkpt lat="50.4697" lon="1.76982">
        <ele>6.6</ele>
        <time>2013-06-21T05:29:18Z</time>
      </trkpt>
      <trkpt lat="50.46954" lon="1.77034">
        <ele>5.9</ele>
        <time>2013-06-21T05:29:18Z</time>
      </trkpt>
      <trkpt lat="50.46918" lon="1.77067">
        <ele>5.4</ele>
        <time>2013-06-21T05:29:18Z</time>
      </trkpt>
      <trkpt lat="50.46874" lon="1.77075">
        <ele>6</ele>
        <time>2013-06-21T05:29:18Z</time>
      </trkpt>
      <trkpt lat="50.46825" lon="1.77084">
        <ele>6</ele>
        <time>2013-06-21T05:29:18Z</time>
      </trkpt>
      <trkpt lat="50.46779" lon="1.771">
        <ele>6</ele>
        <time>2013-06-21T05:29:18Z</time>
      </trkpt>
      <trkpt lat="50.46734" lon="1.77125">
        <ele>6</ele>
        <time>2013-06-21T05:29:18Z</time>
      </trkpt>
      <trkpt lat="50.46691" lon="1.77141">
        <ele>6</ele>
        <time>2013-06-21T05:29:18Z</time>
      </trkpt>
      <trkpt lat="50.46648" lon="1.77139">
        <ele>6</ele>
        <time>2013-06-21T05:29:18Z</time>
      </trkpt>
      <trkpt lat="50.46604" lon="1.77168">
        <ele>6.2</ele>
        <time>2013-06-21T05:29:18Z</time>
      </trkpt>
      <trkpt lat="50.46593" lon="1.77237">
        <ele>5.3</ele>
        <time>2013-06-21T05:29:18Z</time>
      </trkpt>
      <trkpt lat="50.46579" lon="1.77287">
        <ele>5.9</ele>
        <time>2013-06-21T05:29:18Z</time>
      </trkpt>
      <trkpt lat="50.46564" lon="1.77352">
        <ele>5.7</ele>
        <time>2013-06-21T05:29:18Z</time>
      </trkpt>
      <trkpt lat="50.46543" lon="1.77417">
        <ele>6</ele>
        <time>2013-06-21T05:29:18Z</time>
      </trkpt>
      <trkpt lat="50.46521" lon="1.77483">
        <ele>6</ele>
        <time>2013-06-21T05:29:18Z</time>
      </trkpt>
      <trkpt lat="50.46502" lon="1.77546">
        <ele>8.2</ele>
        <time>2013-06-21T05:29:18Z</time>
      </trkpt>
      <trkpt lat="50.46459" lon="1.77541">
        <ele>8.4</ele>
        <time>2013-06-21T05:29:18Z</time>
      </trkpt>
      <trkpt lat="50.46441" lon="1.77572">
        <ele>8.6</ele>
        <time>2013-06-21T05:29:18Z</time>
      </trkpt>
      <trkpt lat="50.46474" lon="1.77587">
        <ele>7.7</ele>
        <time>2013-06-21T05:29:18Z</time>
      </trkpt>
      <trkpt lat="50.46516" lon="1.77582">
        <ele>8</ele>
        <time>2013-06-21T05:29:18Z</time>
      </trkpt>
      <trkpt lat="50.4656" lon="1.77577">
        <ele>7.7</ele>
        <time>2013-06-21T05:29:18Z</time>
      </trkpt>
      <trkpt lat="50.46607" lon="1.77585">
        <ele>6.9</ele>
        <time>2013-06-21T05:29:18Z</time>
      </trkpt>
      <trkpt lat="50.46649" lon="1.77582">
        <ele>6</ele>
        <time>2013-06-21T05:29:18Z</time>
      </trkpt>
      <trkpt lat="50.46693" lon="1.7757">
        <ele>6</ele>
        <time>2013-06-21T05:29:18Z</time>
      </trkpt>
      <trkpt lat="50.46737" lon="1.77558">
        <ele>6.3</ele>
        <time>2013-06-21T05:29:18Z</time>
      </trkpt>
      <trkpt lat="50.46786" lon="1.77545">
        <ele>5.8</ele>
        <time>2013-06-21T05:29:18Z</time>
      </trkpt>
      <trkpt lat="50.46815" lon="1.77551">
        <ele>5.6</ele>
        <time>2013-06-21T05:29:18Z</time>
      </trkpt>
      <trkpt lat="50.46796" lon="1.7762">
        <ele>5.7</ele>
        <time>2013-06-21T05:29:18Z</time>
      </trkpt>
      <trkpt lat="50.46776" lon="1.77689">
        <ele>5</ele>
        <time>2013-06-21T05:29:18Z</time>
      </trkpt>
      <trkpt lat="50.46759" lon="1.7776">
        <ele>5</ele>
        <time>2013-06-21T05:29:18Z</time>
      </trkpt>
      <trkpt lat="50.46741" lon="1.77831">
        <ele>5</ele>
        <time>2013-06-21T05:29:18Z</time>
      </trkpt>
      <trkpt lat="50.46721" lon="1.77901">
        <ele>5</ele>
        <time>2013-06-21T05:29:18Z</time>
      </trkpt>
      <trkpt lat="50.46704" lon="1.77973">
        <ele>5</ele>
        <time>2013-06-21T05:29:18Z</time>
      </trkpt>
      <trkpt lat="50.46686" lon="1.78038">
        <ele>5</ele>
        <time>2013-06-21T05:29:18Z</time>
      </trkpt>
      <trkpt lat="50.46666" lon="1.78095">
        <ele>5</ele>
        <time>2013-06-21T05:29:18Z</time>
      </trkpt>
      <trkpt lat="50.46653" lon="1.7816">
        <ele>5</ele>
        <time>2013-06-21T05:29:18Z</time>
      </trkpt>
      <trkpt lat="50.46636" lon="1.78225">
        <ele>5</ele>
        <time>2013-06-21T05:29:18Z</time>
      </trkpt>
      <trkpt lat="50.46625" lon="1.78286">
        <ele>5</ele>
        <time>2013-06-21T05:29:18Z</time>
      </trkpt>
      <trkpt lat="50.46602" lon="1.78355">
        <ele>5</ele>
        <time>2013-06-21T05:29:18Z</time>
      </trkpt>
      <trkpt lat="50.46584" lon="1.78414">
        <ele>5</ele>
        <time>2013-06-21T05:29:18Z</time>
      </trkpt>
      <trkpt lat="50.46568" lon="1.78483">
        <ele>5.4</ele>
        <time>2013-06-21T05:29:18Z</time>
      </trkpt>
      <trkpt lat="50.46547" lon="1.78544">
        <ele>5</ele>
        <time>2013-06-21T05:29:18Z</time>
      </trkpt>
      <trkpt lat="50.46535" lon="1.78605">
        <ele>5.4</ele>
        <time>2013-06-21T05:29:18Z</time>
      </trkpt>
      <trkpt lat="50.46517" lon="1.78666">
        <ele>5.6</ele>
        <time>2013-06-21T05:29:18Z</time>
      </trkpt>
      <trkpt lat="50.46502" lon="1.78731">
        <ele>5</ele>
        <time>2013-06-21T05:29:18Z</time>
      </trkpt>
      <trkpt lat="50.46491" lon="1.78794">
        <ele>6</ele>
        <time>2013-06-21T05:29:18Z</time>
      </trkpt>
      <trkpt lat="50.46468" lon="1.78856">
        <ele>5.7</ele>
        <time>2013-06-21T05:29:18Z</time>
      </trkpt>
      <trkpt lat="50.46444" lon="1.78916">
        <ele>6</ele>
        <time>2013-06-21T05:29:18Z</time>
      </trkpt>
      <trkpt lat="50.46432" lon="1.7898">
        <ele>6</ele>
        <time>2013-06-21T05:29:18Z</time>
      </trkpt>
      <trkpt lat="50.46413" lon="1.79049">
        <ele>5.1</ele>
        <time>2013-06-21T05:29:18Z</time>
      </trkpt>
      <trkpt lat="50.46397" lon="1.79116">
        <ele>6</ele>
        <time>2013-06-21T05:29:18Z</time>
      </trkpt>
      <trkpt lat="50.46387" lon="1.7918">
        <ele>6</ele>
        <time>2013-06-21T05:29:18Z</time>
      </trkpt>
      <trkpt lat="50.4637" lon="1.7923">
        <ele>5.8</ele>
        <time>2013-06-21T05:29:18Z</time>
      </trkpt>
      <trkpt lat="50.46353" lon="1.79295">
        <ele>5.4</ele>
        <time>2013-06-21T05:29:18Z</time>
      </trkpt>
      <trkpt lat="50.46337" lon="1.79358">
        <ele>6</ele>
        <time>2013-06-21T05:29:18Z</time>
      </trkpt>
      <trkpt lat="50.46318" lon="1.79414">
        <ele>6</ele>
        <time>2013-06-21T05:29:18Z</time>
      </trkpt>
      <trkpt lat="50.46305" lon="1.79473">
        <ele>6</ele>
        <time>2013-06-21T05:29:18Z</time>
      </trkpt>
      <trkpt lat="50.46285" lon="1.79538">
        <ele>6</ele>
        <time>2013-06-21T05:29:18Z</time>
      </trkpt>
      <trkpt lat="50.46267" lon="1.79579">
        <ele>6</ele>
        <time>2013-06-21T05:29:18Z</time>
      </trkpt>
      <trkpt lat="50.46252" lon="1.79636">
        <ele>6</ele>
        <time>2013-06-21T05:29:18Z</time>
      </trkpt>
      <trkpt lat="50.46239" lon="1.79688">
        <ele>6</ele>
        <time>2013-06-21T05:29:18Z</time>
      </trkpt>
      <trkpt lat="50.4623" lon="1.79742">
        <ele>6</ele>
        <time>2013-06-21T05:29:18Z</time>
      </trkpt>
      <trkpt lat="50.46195" lon="1.79763">
        <ele>6</ele>
        <time>2013-06-21T05:29:18Z</time>
      </trkpt>
      <trkpt lat="50.46153" lon="1.7977">
        <ele>6.7</ele>
        <time>2013-06-21T05:29:18Z</time>
      </trkpt>
      <trkpt lat="50.46108" lon="1.7979">
        <ele>6.4</ele>
        <time>2013-06-21T05:29:18Z</time>
      </trkpt>
      <trkpt lat="50.46065" lon="1.79806">
        <ele>7</ele>
        <time>2013-06-21T05:29:18Z</time>
      </trkpt>
      <trkpt lat="50.46019" lon="1.79804">
        <ele>6.4</ele>
        <time>2013-06-21T05:29:18Z</time>
      </trkpt>
      <trkpt lat="50.45977" lon="1.79791">
        <ele>7</ele>
        <time>2013-06-21T05:29:18Z</time>
      </trkpt>
      <trkpt lat="50.45956" lon="1.79732">
        <ele>7</ele>
        <time>2013-06-21T05:29:18Z</time>
      </trkpt>
      <trkpt lat="50.45969" lon="1.79658">
        <ele>7</ele>
        <time>2013-06-21T05:29:18Z</time>
      </trkpt>
      <trkpt lat="50.45982" lon="1.79586">
        <ele>6.7</ele>
        <time>2013-06-21T05:29:18Z</time>
      </trkpt>
      <trkpt lat="50.45992" lon="1.7951">
        <ele>7</ele>
        <time>2013-06-21T05:29:18Z</time>
      </trkpt>
      <trkpt lat="50.46005" lon="1.79438">
        <ele>6.9</ele>
        <time>2013-06-21T05:29:18Z</time>
      </trkpt>
      <trkpt lat="50.46019" lon="1.7936">
        <ele>7</ele>
        <time>2013-06-21T05:29:18Z</time>
      </trkpt>
      <trkpt lat="50.4603" lon="1.7928">
        <ele>6.9</ele>
        <time>2013-06-21T05:29:18Z</time>
      </trkpt>
      <trkpt lat="50.46033" lon="1.79208">
        <ele>7</ele>
        <time>2013-06-21T05:29:18Z</time>
      </trkpt>
      <trkpt lat="50.46046" lon="1.79132">
        <ele>7</ele>
        <time>2013-06-21T05:29:18Z</time>
      </trkpt>
      <trkpt lat="50.46077" lon="1.79081">
        <ele>7</ele>
        <time>2013-06-21T05:29:18Z</time>
      </trkpt>
      <trkpt lat="50.46105" lon="1.79032">
        <ele>7</ele>
        <time>2013-06-21T05:29:18Z</time>
      </trkpt>
      <trkpt lat="50.46129" lon="1.78967">
        <ele>7</ele>
        <time>2013-06-21T05:29:18Z</time>
      </trkpt>
      <trkpt lat="50.46145" lon="1.78899">
        <ele>6.8</ele>
        <time>2013-06-21T05:29:18Z</time>
      </trkpt>
      <trkpt lat="50.46157" lon="1.78835">
        <ele>6.4</ele>
        <time>2013-06-21T05:29:18Z</time>
      </trkpt>
      <trkpt lat="50.46178" lon="1.7877">
        <ele>6</ele>
        <time>2013-06-21T05:29:18Z</time>
      </trkpt>
      <trkpt lat="50.46191" lon="1.78694">
        <ele>6</ele>
        <time>2013-06-21T05:29:18Z</time>
      </trkpt>
      <trkpt lat="50.46206" lon="1.78626">
        <ele>6</ele>
        <time>2013-06-21T05:29:18Z</time>
      </trkpt>
      <trkpt lat="50.46223" lon="1.78566">
        <ele>6</ele>
        <time>2013-06-21T05:29:18Z</time>
      </trkpt>
      <trkpt lat="50.46246" lon="1.78508">
        <ele>6</ele>
        <time>2013-06-21T05:29:18Z</time>
      </trkpt>
      <trkpt lat="50.46264" lon="1.78433">
        <ele>6</ele>
        <time>2013-06-21T05:29:18Z</time>
      </trkpt>
      <trkpt lat="50.46281" lon="1.78364">
        <ele>6</ele>
        <time>2013-06-21T05:29:18Z</time>
      </trkpt>
      <trkpt lat="50.46299" lon="1.78284">
        <ele>6.8</ele>
        <time>2013-06-21T05:29:18Z</time>
      </trkpt>
      <trkpt lat="50.46332" lon="1.78237">
        <ele>6.5</ele>
        <time>2013-06-21T05:29:18Z</time>
      </trkpt>
      <trkpt lat="50.46365" lon="1.78194">
        <ele>6.9</ele>
        <time>2013-06-21T05:29:18Z</time>
      </trkpt>
      <trkpt lat="50.46399" lon="1.78142">
        <ele>6.6</ele>
        <time>2013-06-21T05:29:18Z</time>
      </trkpt>
      <trkpt lat="50.46423" lon="1.78083">
        <ele>6.8</ele>
        <time>2013-06-21T05:29:18Z</time>
      </trkpt>
      <trkpt lat="50.46433" lon="1.78007">
        <ele>7</ele>
        <time>2013-06-21T05:29:18Z</time>
      </trkpt>
      <trkpt lat="50.46436" lon="1.77937">
        <ele>6.3</ele>
        <time>2013-06-21T05:29:18Z</time>
      </trkpt>
      <trkpt lat="50.46423" lon="1.77862">
        <ele>6.8</ele>
        <time>2013-06-21T05:29:18Z</time>
      </trkpt>
      <trkpt lat="50.46441" lon="1.77794">
        <ele>6.1</ele>
        <time>2013-06-21T05:29:18Z</time>
      </trkpt>
      <trkpt lat="50.46445" lon="1.77722">
        <ele>6</ele>
        <time>2013-06-21T05:29:18Z</time>
      </trkpt>
      <trkpt lat="50.46469" lon="1.77667">
        <ele>6</ele>
        <time>2013-06-21T05:29:18Z</time>
      </trkpt>
      <trkpt lat="50.46478" lon="1.77598">
        <ele>6.9</ele>
        <time>2013-06-21T05:29:18Z</time>
      </trkpt>
      <trkpt lat="50.46465" lon="1.77588">
        <ele>7.7</ele>
        <time>2013-06-21T05:29:18Z</time>
      </trkpt>
      <trkpt lat="50.46433" lon="1.77563">
        <ele>8.4</ele>
        <time>2013-06-21T05:29:18Z</time>
      </trkpt>
      <trkpt lat="50.46428" lon="1.77492">
        <ele>6.6</ele>
        <time>2013-06-21T05:29:18Z</time>
      </trkpt>
      <trkpt lat="50.46425" lon="1.77431">
        <ele>6.8</ele>
        <time>2013-06-21T05:29:18Z</time>
      </trkpt>
      <trkpt lat="50.46431" lon="1.77359">
        <ele>7</ele>
        <time>2013-06-21T05:29:18Z</time>
      </trkpt>
      <trkpt lat="50.46432" lon="1.77289">
        <ele>6.4</ele>
        <time>2013-06-21T05:29:18Z</time>
      </trkpt>
      <trkpt lat="50.46453" lon="1.77224">
        <ele>6.7</ele>
        <time>2013-06-21T05:29:18Z</time>
      </trkpt>
      <trkpt lat="50.46481" lon="1.77167">
        <ele>7</ele>
        <time>2013-06-21T05:29:18Z</time>
      </trkpt>
      <trkpt lat="50.46513" lon="1.77121">
        <ele>7.3</ele>
        <time>2013-06-21T05:29:18Z</time>
      </trkpt>
      <trkpt lat="50.46545" lon="1.77077">
        <ele>7.1</ele>
        <time>2013-06-21T05:29:18Z</time>
      </trkpt>
      <trkpt lat="50.46581" lon="1.77035">
        <ele>7.1</ele>
        <time>2013-06-21T05:29:18Z</time>
      </trkpt>
      <trkpt lat="50.46618" lon="1.76991">
        <ele>7.2</ele>
        <time>2013-06-21T05:29:18Z</time>
      </trkpt>
      <trkpt lat="50.46658" lon="1.76955">
        <ele>7.2</ele>
        <time>2013-06-21T05:29:18Z</time>
      </trkpt>
      <trkpt lat="50.4669" lon="1.76907">
        <ele>6.8</ele>
        <time>2013-06-21T05:29:18Z</time>
      </trkpt>
      <trkpt lat="50.46727" lon="1.76869">
        <ele>6.6</ele>
        <time>2013-06-21T05:29:18Z</time>
      </trkpt>
      <trkpt lat="50.46766" lon="1.76833">
        <ele>7.1</ele>
        <time>2013-06-21T05:29:18Z</time>
      </trkpt>
      <trkpt lat="50.46773" lon="1.76789">
        <ele>6.8</ele>
        <time>2013-06-21T05:29:18Z</time>
      </trkpt>
      <trkpt lat="50.46736" lon="1.76782">
        <ele>8.4</ele>
        <time>2013-06-21T05:29:18Z</time>
      </trkpt>
      <trkpt lat="50.46697" lon="1.76806">
        <ele>8.9</ele>
        <time>2013-06-21T05:29:18Z</time>
      </trkpt>
      <trkpt lat="50.46662" lon="1.76846">
        <ele>8.7</ele>
        <time>2013-06-21T05:29:18Z</time>
      </trkpt>
      <trkpt lat="50.46624" lon="1.76881">
        <ele>8.2</ele>
        <time>2013-06-21T05:29:18Z</time>
      </trkpt>
      <trkpt lat="50.46591" lon="1.76824">
        <ele>13.8</ele>
        <time>2013-06-21T05:29:18Z</time>
      </trkpt>
      <trkpt lat="50.46565" lon="1.76792">
        <ele>17.8</ele>
        <time>2013-06-21T05:29:18Z</time>
      </trkpt>
      <trkpt lat="50.46534" lon="1.76818">
        <ele>20.7</ele>
        <time>2013-06-21T05:29:18Z</time>
      </trkpt>
      <trkpt lat="50.46495" lon="1.76841">
        <ele>22.1</ele>
        <time>2013-06-21T05:29:18Z</time>
      </trkpt>
      <trkpt lat="50.46458" lon="1.76835">
        <ele>21.7</ele>
        <time>2013-06-21T05:29:18Z</time>
      </trkpt>
      <trkpt lat="50.46415" lon="1.7685">
        <ele>21.3</ele>
        <time>2013-06-21T05:29:18Z</time>
      </trkpt>
      <trkpt lat="50.46377" lon="1.76847">
        <ele>22.1</ele>
        <time>2013-06-21T05:29:18Z</time>
      </trkpt>
      <trkpt lat="50.46348" lon="1.76797">
        <ele>23.9</ele>
        <time>2013-06-21T05:29:18Z</time>
      </trkpt>
      <trkpt lat="50.46312" lon="1.76736">
        <ele>24.9</ele>
        <time>2013-06-21T05:29:18Z</time>
      </trkpt>
      <trkpt lat="50.46278" lon="1.76686">
        <ele>23.9</ele>
        <time>2013-06-21T05:29:18Z</time>
      </trkpt>
      <trkpt lat="50.46237" lon="1.76657">
        <ele>25.7</ele>
        <time>2013-06-21T05:29:18Z</time>
      </trkpt>
      <trkpt lat="50.46216" lon="1.76605">
        <ele>26.5</ele>
        <time>2013-06-21T05:29:18Z</time>
      </trkpt>
      <trkpt lat="50.46196" lon="1.76537">
        <ele>27.4</ele>
        <time>2013-06-21T05:29:18Z</time>
      </trkpt>
      <trkpt lat="50.46175" lon="1.76468">
        <ele>31.3</ele>
        <time>2013-06-21T05:29:18Z</time>
      </trkpt>
      <trkpt lat="50.46153" lon="1.76404">
        <ele>30</ele>
        <time>2013-06-21T05:29:18Z</time>
      </trkpt>
      <trkpt lat="50.46151" lon="1.76335">
        <ele>36.9</ele>
        <time>2013-06-21T05:29:18Z</time>
      </trkpt>
      <trkpt lat="50.46159" lon="1.76264">
        <ele>44.3</ele>
        <time>2013-06-21T05:29:18Z</time>
      </trkpt>
      <trkpt lat="50.46191" lon="1.76272">
        <ele>44.9</ele>
        <time>2013-06-21T05:29:18Z</time>
      </trkpt>
      <trkpt lat="50.46223" lon="1.7631">
        <ele>44.8</ele>
        <time>2013-06-21T05:29:18Z</time>
      </trkpt>
      <trkpt lat="50.46207" lon="1.76359">
        <ele>44.6</ele>
        <time>2013-06-21T05:29:18Z</time>
      </trkpt>
      <trkpt lat="50.46184" lon="1.764">
        <ele>37.9</ele>
        <time>2013-06-21T05:29:18Z</time>
      </trkpt>
      <trkpt lat="50.46175" lon="1.76342">
        <ele>42.4</ele>
        <time>2013-06-21T05:29:18Z</time>
      </trkpt>
      <trkpt lat="50.4615" lon="1.76293">
        <ele>41.2</ele>
        <time>2013-06-21T05:29:18Z</time>
      </trkpt>
      <trkpt lat="50.46111" lon="1.76264">
        <ele>39.4</ele>
        <time>2013-06-21T05:29:18Z</time>
      </trkpt>
      <trkpt lat="50.46072" lon="1.7624">
        <ele>38.1</ele>
        <time>2013-06-21T05:29:18Z</time>
      </trkpt>
      <trkpt lat="50.4604" lon="1.7619">
        <ele>41.5</ele>
        <time>2013-06-21T05:29:18Z</time>
      </trkpt>
      <trkpt lat="50.46039" lon="1.7613">
        <ele>43.7</ele>
        <time>2013-06-21T05:29:18Z</time>
      </trkpt>
      <trkpt lat="50.46015" lon="1.76087">
        <ele>48.5</ele>
        <time>2013-06-21T05:29:18Z</time>
      </trkpt>
      <trkpt lat="50.46015" lon="1.76017">
        <ele>47.3</ele>
        <time>2013-06-21T05:29:18Z</time>
      </trkpt>
      <trkpt lat="50.4602" lon="1.75952">
        <ele>49.6</ele>
        <time>2013-06-21T05:29:18Z</time>
      </trkpt>
      <trkpt lat="50.46051" lon="1.75895">
        <ele>49.2</ele>
        <time>2013-06-21T05:29:18Z</time>
      </trkpt>
      <trkpt lat="50.46078" lon="1.75855">
        <ele>48.2</ele>
        <time>2013-06-21T05:29:18Z</time>
      </trkpt>
      <trkpt lat="50.46108" lon="1.75821">
        <ele>45.2</ele>
        <time>2013-06-21T05:29:18Z</time>
      </trkpt>
      <trkpt lat="50.46152" lon="1.75835">
        <ele>46.2</ele>
        <time>2013-06-21T05:29:18Z</time>
      </trkpt>
      <trkpt lat="50.46196" lon="1.75848">
        <ele>44.2</ele>
        <time>2013-06-21T05:29:18Z</time>
      </trkpt>
      <trkpt lat="50.46241" lon="1.7587">
        <ele>45.3</ele>
        <time>2013-06-21T05:29:18Z</time>
      </trkpt>
      <trkpt lat="50.4629" lon="1.75865">
        <ele>44.3</ele>
        <time>2013-06-21T05:29:18Z</time>
      </trkpt>
      <trkpt lat="50.46337" lon="1.7586">
        <ele>44.8</ele>
        <time>2013-06-21T05:29:18Z</time>
      </trkpt>
      <trkpt lat="50.46379" lon="1.75873">
        <ele>42.1</ele>
        <time>2013-06-21T05:29:18Z</time>
      </trkpt>
      <trkpt lat="50.46401" lon="1.75931">
        <ele>42.2</ele>
        <time>2013-06-21T05:29:18Z</time>
      </trkpt>
      <trkpt lat="50.46424" lon="1.75984">
        <ele>46.8</ele>
        <time>2013-06-21T05:29:18Z</time>
      </trkpt>
      <trkpt lat="50.46468" lon="1.7598">
        <ele>46.6</ele>
        <time>2013-06-21T05:29:18Z</time>
      </trkpt>
      <trkpt lat="50.46511" lon="1.75974">
        <ele>47.8</ele>
        <time>2013-06-21T05:29:18Z</time>
      </trkpt>
      <trkpt lat="50.46556" lon="1.75953">
        <ele>47.6</ele>
        <time>2013-06-21T05:29:18Z</time>
      </trkpt>
      <trkpt lat="50.466" lon="1.75981">
        <ele>48.2</ele>
        <time>2013-06-21T05:29:18Z</time>
      </trkpt>
      <trkpt lat="50.46595" lon="1.76041">
        <ele>48</ele>
        <time>2013-06-21T05:29:18Z</time>
      </trkpt>
      <trkpt lat="50.46555" lon="1.7606">
        <ele>47.8</ele>
        <time>2013-06-21T05:29:18Z</time>
      </trkpt>
      <trkpt lat="50.46512" lon="1.76076">
        <ele>48</ele>
        <time>2013-06-21T05:29:18Z</time>
      </trkpt>
      <trkpt lat="50.4647" lon="1.76082">
        <ele>48</ele>
        <time>2013-06-21T05:29:18Z</time>
      </trkpt>
      <trkpt lat="50.46439" lon="1.76101">
        <ele>47.9</ele>
        <time>2013-06-21T05:29:18Z</time>
      </trkpt>
      <trkpt lat="50.46445" lon="1.7613">
        <ele>48</ele>
        <time>2013-06-21T05:29:18Z</time>
      </trkpt>
      <trkpt lat="50.46419" lon="1.7618">
        <ele>49</ele>
        <time>2013-06-21T05:29:18Z</time>
      </trkpt>
      <trkpt lat="50.46398" lon="1.76232">
        <ele>48.3</ele>
        <time>2013-06-21T05:29:18Z</time>
      </trkpt>
      <trkpt lat="50.46397" lon="1.76234">
        <ele>48.3</ele>
        <time>2013-06-21T05:29:18Z</time>
      </trkpt>
      <trkpt lat="50.46396" lon="1.76236">
        <ele>48.3</ele>
        <time>2013-06-21T05:29:18Z</time>
      </trkpt>
      <trkpt lat="50.46397" lon="1.76239">
        <ele>48.3</ele>
        <time>2013-06-21T05:29:18Z</time>
      </trkpt>
      <trkpt lat="50.46399" lon="1.76242">
        <ele>48.4</ele>
        <time>2013-06-21T05:29:18Z</time>
      </trkpt>
      <trkpt lat="50.464" lon="1.76245">
        <ele>48.4</ele>
        <time>2013-06-21T05:29:18Z</time>
      </trkpt>
      <trkpt lat="50.46402" lon="1.76246">
        <ele>48.5</ele>
        <time>2013-06-21T05:29:18Z</time>
      </trkpt>
      <trkpt lat="50.46404" lon="1.76248">
        <ele>48.5</ele>
        <time>2013-06-21T05:29:18Z</time>
      </trkpt>
      <trkpt lat="50.46405" lon="1.7625">
        <ele>48.6</ele>
        <time>2013-06-21T05:29:18Z</time>
      </trkpt>
      <trkpt lat="50.46407" lon="1.76251">
        <ele>48.6</ele>
        <time>2013-06-21T05:29:18Z</time>
      </trkpt>
      <trkpt lat="50.46409" lon="1.76254">
        <ele>48.6</ele>
        <time>2013-06-21T05:29:18Z</time>
      </trkpt>
      <trkpt lat="50.46411" lon="1.76255">
        <ele>48.7</ele>
        <time>2013-06-21T05:29:18Z</time>
      </trkpt>
      <trkpt lat="50.46413" lon="1.76256">
        <ele>48.7</ele>
        <time>2013-06-21T05:29:18Z</time>
      </trkpt>
      <trkpt lat="50.46415" lon="1.76256">
        <ele>48.7</ele>
        <time>2013-06-21T05:29:18Z</time>
      </trkpt>
      <trkpt lat="50.46418" lon="1.76259">
        <ele>48.7</ele>
        <time>2013-06-21T05:29:18Z</time>
      </trkpt>
      <trkpt lat="50.46419" lon="1.76261">
        <ele>48.6</ele>
        <time>2013-06-21T05:29:18Z</time>
      </trkpt>
      <trkpt lat="50.46421" lon="1.76263">
        <ele>48.6</ele>
        <time>2013-06-21T05:29:18Z</time>
      </trkpt>
      <trkpt lat="50.46422" lon="1.76265">
        <ele>48.6</ele>
        <time>2013-06-21T05:29:18Z</time>
      </trkpt>
      <trkpt lat="50.46423" lon="1.76268">
        <ele>48.5</ele>
        <time>2013-06-21T05:29:18Z</time>
      </trkpt>
      <trkpt lat="50.46423" lon="1.7627">
        <ele>48.4</ele>
        <time>2013-06-21T05:29:18Z</time>
      </trkpt>
      <trkpt lat="50.46423" lon="1.76272">
        <ele>48.4</ele>
        <time>2013-06-21T05:29:18Z</time>
      </trkpt>
      <trkpt lat="50.46423" lon="1.76274">
        <ele>48.3</ele>
        <time>2013-06-21T05:29:18Z</time>
      </trkpt>
      <trkpt lat="50.46423" lon="1.76274">
        <ele>48.3</ele>
        <time>2013-06-21T05:29:18Z</time>
      </trkpt>
    </trkseg>
  </trk>
</gpx>